Погода в Таллинне

Погода в Таллинне : погода сейчас, прогноз погоды и архив. Всё, что Вы хотите узнать о погоде в Таллинне!

Поиск расширенной информации на нашем сайте:

Другие новости

Новости СМИ2

Главная страница сайта

Новости сайта

02.10.2013

Напоминаем, что на нашем новом сайте вы можете получить высокодетализированные прогнозы погоды по пунктам России, СНГ и мира (включающие важные для авиации метеовеличины, такие как направление и скорость ветра, видимость, явления погоды, количество и форма облачности, нижняя и верхняя граница облачности), а также ознакомиться с разнообразными материалами по авиационной метеорологии и подборкой полезных ссылок на эту тему.

Сайт Метеоцентр.Азия посвящён разработке технологий оптимизации авиаметеорологического обслуживания, включая проектирование и перспективное создание нескольких автоматизированных авиаметеорологических систем:
- система выпуска высокодетальных прогностических карт явлений погоды для нижнего воздушного пространства по России и ближнему зарубежью;
- система верификации прогнозов TAF (выпускаемых синоптиками официальных АМСГ РФ и ближнего зарубежья) и AUTOTAF (выпускаемых сайтом Метеоцентр.Азия) - выявление ошибок, онлайн-сопоставление с фактической погодой METAR, автоматическое внесение коррективов в прогнозы при резком отклонении фактической погоды от прогноза, подсчёт оправдываемости прогнозов по элементам и в целом;
- система обработки, анализа и отображения авиаметеорологической информации для применения провайдерами метеорологической информации.

Рекомендуем: Актуальная информация венки ритуальные из искусственных цветов здесь.

Погода в Таллинне - сегодня

Время (UTC), дата Ветер
(°,м/с) 
Видим.   Явления Облачность Т
(°С)
Тd
(°С)
f(%) Тe
(°С)
Pmin
(гПа)
dP
(гПа)
Po
(мм)
O2
(г/м3)
Тmin Tmax R s Состояние
почвы
18 22.06.17 270 (З) 6-11{11}  20000 м    3/1 800 м средняя 
[Cu Sc|Ac lent]
+12.3 +7.2 71 +11  1005.2  -0.7  751  288  +12.3  +15.3       
21 22.06.17 260 (З) 3{09}  20000 м    3/3 800 м 
[Cu Sc]
+10.5 +7.7 83 +10  1005.4  0.2  751  290  +10.4  +15.3       
00 23.06.17 280 (З) 20000 м    1/1 средняя 
[Ac lent]
+8.8 +6.3 84 +10  1005.7  0.3  751  292  +8.8  +15       
03 23.06.17 360 (С) 20000 м    3/1 540 м средняя 
[Sc|Ac trans]
+9.6 +5.9 78 +10  1006.3  0.6  752  292  +8.2  +14.2       
06 23.06.17 360 (С) 20000 м    3/1 800 м средняя 
[Cu hum|Ac trans]
+11.4 +4.8 64 +11  1007  0.7  752  290  +8.2  +12.3       
09 23.06.17 350 (С) 20000 м    8/8 840 м 
[Cu med, cong]
+10.6 +4.4 65 +10  1007.9  0.9  753  291  +8.2  +12       
12 23.06.17 020 (С) 20000 м    3/3 1110 м 
[Cu hum]
+13.2 +4.9 57 +13  1008.1  0.2  753  289  +8.2  +13.3       
18 23.06.17 270 (З) 20000 м    8/1 1200 м средняя 
[Sc|Ac trans]
+12.1 +7.9 75 +12  1008.3  0.4  753  289  +10.4  +14.2       
21 23.06.17 230 (ЮЗ) 14000 м    1/1 средняя 
[Ac trans]
+9.3 +7.1 86 +9  1007.8  -0.5  753  292  +9.3  +14.2       
00 24.06.17 200 (Ю) 14000 м    4/0 средняя, верхняя 
[Ac trans|Cc]
+6.9 +6.4 97 +8  1007.7  -0.1  753  295  +6.4  +14.2       
03 24.06.17 210 (ЮЗ) 20000 м    9/0 средняя, верхняя 
[Ac trans|Cc]
+8 +6.9 93 +8  1006.8  -0.9  752  293  +6.4  +14.2       
06 24.06.17 160 (Ю) 20000 м    9/0 средняя, верхняя 
[Ac trans|Cc]
+13.4 +6.7 64 +14  1005.7  -1.1  751  287  +6.4  +14.2       
12 24.06.17 210 (ЮЗ) 20000 м    9/8 1000 м средняя 
[Cu Sc|Ac As]
+15.9 +6 52 +17  1003.3  -1.1  750  284  +6.5  +16.9       
21 24.06.17 160 (Ю) 16000 м  {ливн. осадки}  10/10 100 м 
[St]
+11.6 +11.5 99 +14  997.7  -2.2  745  286  +10.4  +16.9     
00 25.06.17 210 (ЮЗ) 19000 м  {ливн. осадки}  10/10 150 м 
[St]
+13.3 +12.8 97 +18  996.6  -1.1  745  284  +10.4  +15.9     
03 25.06.17 220 (ЮЗ) 20000 м    6/4 300 м средняя 
[St|Ac trans]
+12.6 +11.8 95 +17  996.7  0.1  745  285  +10.4  +13.3       
06 25.06.17 250 (З) 5-9{09}  20000 м    3/3 1500 м средняя 
[Cu hum|Ac trans]
+15.7 +11.3 75 +18  996.8  0.1  745  282  +10.4  +15.9       
09 25.06.17 220 (ЮЗ) 5-9{10}  20000 м    9/8 840 м средняя 
[Cu Sc|Ac trans]
+17.4 +10.6 64 +19  997.3  0.5  745  280  +11.6  +17.7       
12 25.06.17 260 (З) 5-9{11}  20000 м    9/9 840 м 
[Cu Sc]
+15.8 +10.2 69 +18  998.4  1.1  746  282  +12.3  +18       
15 25.06.17 240 (ЮЗ) 6-11{12}  20000 м    9/6 1350 м средняя 
[Cu Sc|Ac inh]
+16.7 +6.7 52 +16  998.1  -0.3  746  282  +12.7  +18       
03 26.06.17 210 (ЮЗ) 20000 м    9/9 150 м 
[St]
+11.5 +10.9 96 +14  995.5  -0.2  744  285  +10.4  +16.8       
06 26.06.17 200 (Ю) 3{08}  18000 м  ливневой дождь  9/9 600 м кучево-дожд. 
[Cb cap]
+12.1 +10 87 +13  994.7  -0.8  743  285  +10.4  +14.3       
09 26.06.17 220 (ЮЗ) 4-8{09}  20000 м  слаб. ливневой дождь  9/9 500 м кучево-дожд. 
[Cb cap]
+13.7 +10 78 +14  994.5  -0.2  743  283  +10.4  +14.7     
12 26.06.17 220 (ЮЗ) 4-8{11}  20000 м  в посл. час гроза{ливн. осадки}  9/6 400 м кучево-дожд., средняя, верхняя 
[Cb cap|Ac As|Ci fib]
+13.1 +10.4 84 +15  994.7  0.2  743  284  +10.4  +14.7     
21 26.06.17 230 (ЮЗ) 20000 м    3/3 800 м 
[Sc]
+10.5 +9 90 +10  996.2  0.6  744  287  +10.4  +14.3       
Время (UTC), дата Ветер
(°,м/с) 
Видим.   Явления Облачность Т
(°С)
Тd
(°С)
f(%) Тe
(°С)
Pmin
(гПа)
dP
(гПа)
Po
(мм)
O2
(г/м3)
Тmin Tmax R s Состояние
почвы

Для получения пояснительной информации подведите курсор к названию столбца.

ПОГОДА в Таллинне - архив

Всё, что Вы хотите узнать о погоде в Таллинне - удобно и подробно!

Выберите нужную дату (начиная с 1 января 2015* года) и нажмите кнопку "Найти".
Будут отображены архивные сводки погоды по пункту Таллинн, начиная с указанной даты.


Отображать данные в формате CSV (для использования в таблицах Excel)


Внимание! Наш архив погоды предназначен исключительно для личного некоммерческого использования в познавательных целях. Если Вам необходимы официальные справки о состоянии погоды (для производственных, юридических, коммерческих и т.п. целей), обращайтесь в органы Росгидромета.

*Примечание: данная дата относится к архиву по метеостанциям СССР (Россия, СНГ, Балтия).
Архив по метеостанциям Зарубежной Европы и Азии (кроме Китая) хранится 10 дней, по другим регионам земного шара (Китай, Африка, Америка, Австралия, Океания) - 1 день.

Таллинн - район местоположения метеостанции


Название, широта, долгота, высота метеостанции:
Таллинн 59.4°ш. 24.6°д. 34 м над ур. моря [Эстония]

Дополнительная информация

В oтличие oт бoльшинства пoгoдных сайтoв мы публикуем пoдрoбную метеoинфoрмацию в детальнoм прoфессиoнальнoм фoрмате.

Характеристики температуры и влажнoсти вoздуха измеряются на высoте 2 м в тени вдали oт зданий и деревьев.
Скoрoсть ветра измеряется на высoте 10 м (на урoвне рoста челoвека скoрoсть ветра ниже в 1.5-2 раза). Если метеoстанция нахoдится в гoрoде или в лесу, тo скoрoсть ветра занижена на 2-4 м/с пo сравнению с oткрытым местoм. Скoрoсть ветра над акватoриями крупных рек и oзёр, а также на вершинах хoлмoв на 2-5 м/с выше, чем в oбычных услoвиях.
Атмoсфернoе давление в разных тoчках местнoсти мoжет значительнo oтличаться oт давления на метеoстанции, в зависимoсти oт услoвий рельефа (при пoдъёме на 10 м давление пoнижается примернo на 1 мм рт.ст.).